Regional Weather Roundup
Issued by NWS

Home | Current Version | Previous Version | Text Only | Print | Product List | Glossary Off
Versions: 1 2 3 4 5 6 7 8 9 10 11 12 13 14 15 16 17 18 19 20 21 22 23 24 25 26 27 28 29 30 31 32 33 34 35 36 37 38 39 40 41 42 43 44 45 46 47 48 49 50

000
ASUS43 KFSD 111710
RWRSD

WEATHER ROUNDUP FOR SOUTH DAKOTA
NATIONAL WEATHER SERVICE SIOUX FALLS SD
1200 PM CDT FRI JUL 11 2014

NOTE: "FAIR" INDICATES FEW OR NO CLOUDS BELOW 12,000 FEET WITH NO
SIGNIFICANT WEATHER AND/OR OBSTRUCTIONS TO VISIBILITY.


SDZ001>005-009-010-012>017-111800-
NORTHWEST AND NORTH CENTRAL SOUTH DAKOTA

CITY           SKY/WX    TMP DP  RH WIND       PRES   REMARKS
BUFFALO          N/A     79  57  46 NE18G25   30.02R
FAITH            N/A     81  68  64 NE20G28   30.01R
MOBRIDGE       CLOUDY    78  70  76 N14G20    29.95R
$$

SDZ012>016-024>037-041>051-057-063-072>074-111800-
SOUTHWEST AND SOUTH CENTRAL SOUTH DAKOTA

CITY           SKY/WX    TMP DP  RH WIND       PRES   REMARKS
RAPID CTY ARPT SUNNY     83  63  50 N13G20    30.04R
PIERRE         SUNNY     85  70  60 VRB6      29.93R
CUSTER         MOSUNNY   78  53  41 E8        30.18R
ELLSWORTH AFB  SUNNY     82  65  57 NE14      30.04R
PHILIP           N/A    N/A N/A N/A MISG      29.96R
PINE RIDGE     PTSUNNY   80  64  58 SE3       30.03R
WINNER         FAIR      86  68  54 SW5       29.95R
$$

SDZ004>011-016>023-039-040-111800-
NORTHEAST SOUTH DAKOTA

CITY           SKY/WX    TMP DP  RH WIND       PRES   REMARKS
ABERDEEN       SUNNY     81  70  69 N8        29.92R
WATERTOWN      SUNNY     81  71  71 NW7       29.92R
SISSETON         N/A     84  71  65 VRB5      29.89R
$$

SDZ017-020-022-023-036>040-048>070-111800-
SOUTHEAST SOUTH DAKOTA

CITY           SKY/WX    TMP DP  RH WIND       PRES   REMARKS
SIOUX FALLS    CLOUDY    78  69  73 SW10      29.95R
HURON          SUNNY     86  70  58 VRB5      29.90R
CHAMBERLAIN    MOSUNNY   83  71  66 N8        29.93R
MITCHELL       SUNNY     82  72  71 S9        29.91S
YANKTON        SUNNY     81  72  74 S9        29.94S
$$

ABBREVIATIONS USED IN REMARKS
   TC - TEMPERATURE IN CELSIUS
  WCI - WIND CHILL INDEX
   HX - HEAT INDEX
  VSB - VISIBILITY



USA.gov is the U.S. government's official web portal to all federal, state and local government web resources and services.